Location: Centerville
(32.8776°N, 96.6203°W)
Time: 05:26:55
(UTC+00:00)

Cosmos 1943 Rocket - Pass Details

Date: 17 June 2021
Orbit: 813 x 843 km, 71.0° (Epoch: 29 July)

Event Time Altitude Azimuth Distance (km) Brightness Sun altitude
Rises 07:25:09 0° 341° (NNW) 3,340 6.1 -32.1°
Reaches altitude 10° 07:27:35 10° 343° (NNW) 2,406 5.2 -31.9°
Enters shadow 07:31:54 55° 2° (N) 975 2.7 -31.7°
